Terminal Aerodrome Forecast
Issued by NWS Charleston, WV

Current Version | Previous Version | Graphics & Text | Print | Product List | Glossary On
Versions: 1 2 3 4 5 6 7 8 9 10 11 12 13 14 15 16
000
FTUS41 KRLX 180500
TAFHTS
TAF
KHTS 180525Z 1806/1906 14005KT P6SM SCT250
     FM181600 24005KT P6SM SCT250
     FM190000 00000KT P6SM SCT250=

USA.gov is the U.S. government's official web portal to all federal, state and local government web resources and services.